Location: Unspecified
(0.0000°N, 0.0000°E)
Time: 17:09:58
(UTC+00:00)

Sedsat-1 - Visible Passes

Search period start: 28 May 2023 00:00
Search period end: 07 June 2023 00:00
Orbit: 541 x 1034 km, 31.4° (Epoch: 28 May)

Date Brightness Start Highest point End Pass type
(mag) Time Alt. Az. Time Alt. Az. Time Alt. Az.
28 May 9.5 05:12:16 10° S 05:15:01 17° SSE 05:17:47 10° ESE visible
28 May 9.5 19:32:41 10° W 19:38:57 36° SSW 19:41:21 28° S visible
29 May 9.6 04:39:01 11° S 04:40:57 15° SSE 04:43:19 10° ESE visible
29 May 9.4 18:58:04 10° WNW 19:04:33 41° SSW 19:09:20 17° SSE visible
30 May 9.8 04:07:02 13° SSE 04:07:02 13° SSE 04:08:50 10° ESE visible
30 May 9.4 18:23:31 10° WNW 18:30:09 46° SSW 18:36:34 10° SE visible
30 May 10.7 20:15:25 10° SW 20:17:38 12° SSW 20:17:53 12° SSW visible
31 May 7.3 05:15:38 12° SW 05:19:22 86° SE 05:23:29 10° ENE visible
31 May 10.6 19:40:02 10° WSW 19:43:14 14° SSW 19:45:50 11° S visible
01 Jun 7.3 04:43:39 33° SW 04:45:22 73° SSE 04:49:25 10° ENE visible
01 Jun 10.6 19:04:58 10° WSW 19:08:50 15° SSW 19:12:37 10° S visible
02 Jun 7.6 04:11:38 60° ESE 04:11:38 60° ESE 04:15:23 10° ENE visible
02 Jun 10.6 18:30:03 10° WSW 18:34:24 17° SSW 18:38:43 10° S visible
03 Jun 9.5 03:39:36 24° E 03:39:36 24° E 03:41:21 10° ENE visible
03 Jun 9.2 05:20:45 10° WNW 05:23:43 19° NNW 05:26:37 10° NNE visible
04 Jun 9.0 04:48:06 18° WNW 04:49:40 22° NNW 04:52:52 10° NNE visible
05 Jun 8.9 04:15:59 25° NNW 04:15:59 25° NNW 04:19:05 10° NNE visible
06 Jun 9.7 03:43:49 19° NNE 03:43:49 19° NNE 03:45:18 10° NNE visible
